Weather History for KMGW - January, 2002

Change the Weather History Date:

Sunday, January 13, 2002

  Actual Average Record
Temperature  
Mean Temperature 34 °F 31 °F  
Max Temperature 39 °F 39 °F 72 °F (2005)
Min Temperature 30 °F 24 °F -12 °F (1977)
Degree Days  
Heating Degree Days 30 34  
Month to date heating degree days 439  
Since 1 July heating degree days 2423  
Cooling Degree Days 0 0  
Month to date cooling degree days 0  
Year to date cooling degree days 0  
Moisture  
Dew Point 24 °F    
Average Humidity 67    
Maximum Humidity 89    
Minimum Humidity 41    
Precipitation  
Precipitation 0.02 in 0.09 in 0.80 in (1975)
Month to date precipitation 1.17  
Year to date precipitation 1.17  
Sea Level Pressure  
Sea Level Pressure 29.79 in    
Wind  
Wind Speed 8 mph (WSW)    
Max Wind Speed 17 mph    
Max Gust Speed 29 mph    
Visibility 10 miles    
Events Rain , Snow    
T = Trace of Precipitation, MM = Missing Value Source: NWS Daily Summary

Daily Weather History Graph

Daily Weather History Graph

Search for Another Location

Airport or City:

Trip Planner

Search our weather history database for the weather conditions in past years. The results will help you decide how hot, cold, wet, or windy it might be!

Date:

Astronomy

Jan. 13, 2002 Rise Set
Actual Time 7:39 AM EST 5:17 PM EST
Civil Twilight 7:09 AM EST 5:47 PM EST
Nautical Twilight 6:36 AM EST 6:20 PM EST
Astronomical Twilight 6:04 AM EST 6:53 PM EST
Moon 7:55 AM EST (1/13) 5:24 PM EST (1/13)
Length of Visible Light 10h 37m
Length of Day
9h 38m
New Moon, 0% of the Moon is Illuminated
Jan 13
New Moon
Jan 21
First Quarter
Jan 28
Full
Feb 4
Last Quarter
Feb 12
New

Hourly Weather History & Observations

Time (EST) Temp. Windchill Dew Point Humidity Pressure Visibility Wind Dir Wind Speed Gust Speed Precip Events Conditions
12:22 AM 37.4 °F 31.4 °F 30.2 °F 75% 29.61 in 10.0 mi WSW 8.1 mph - 0.00 in   Overcast
12:53 AM 35.1 °F 27.9 °F 32.0 °F 89% 29.63 in 9.0 mi WSW 9.2 mph - 0.00 in Rain Light Rain
1:01 AM 35.6 °F 29.9 °F 32.0 °F 87% 29.61 in 10.0 mi Variable 6.9 mph - 0.01 in Rain Light Rain
1:30 AM 33.8 °F 27.7 °F 30.2 °F 87% 29.62 in 9.0 mi Variable 6.9 mph - 0.02 in   Overcast
1:37 AM 33.8 °F 26.4 °F 30.2 °F 87% 29.62 in 10.0 mi WNW 9.2 mph 17.3 mph 0.02 in   Overcast
1:46 AM 33.8 °F 27.0 °F 30.2 °F 87% 29.63 in 10.0 mi West 8.1 mph - 0.02 in   Overcast
1:53 AM 34.0 °F 28.8 °F 30.0 °F 85% 29.65 in 10.0 mi Variable 5.8 mph - 0.02 in   Overcast
2:07 AM 33.8 °F 28.6 °F 30.2 °F 87% 29.64 in 10.0 mi Variable 5.8 mph - N/A   Mostly Cloudy
2:14 AM 33.8 °F 30.8 °F 30.2 °F 87% 29.64 in 10.0 mi Variable 3.5 mph - N/A   Scattered Clouds
2:29 AM 33.8 °F 27.7 °F 30.2 °F 87% 29.65 in 10.0 mi West 6.9 mph - N/A   Mostly Cloudy
2:53 AM 34.0 °F 27.2 °F 27.0 °F 75% 29.68 in 10.0 mi West 8.1 mph - N/A   Mostly Cloudy
3:17 AM 33.8 °F 25.3 °F 24.8 °F 70% 29.66 in 10.0 mi West 11.5 mph 17.3 mph N/A   Overcast
3:53 AM 33.1 °F 26.1 °F 23.0 °F 66% 29.68 in 10.0 mi West 8.1 mph - N/A   Mostly Cloudy
4:53 AM 33.1 °F 24.9 °F 21.9 °F 64% 29.69 in 10.0 mi West 10.4 mph - N/A   Overcast
5:53 AM 32.0 °F 23.6 °F 21.9 °F 66% 29.72 in 10.0 mi West 10.4 mph - N/A   Overcast
6:46 AM 32.0 °F 24.8 °F 23.0 °F 69% 29.72 in 10.0 mi West 8.1 mph - N/A   Overcast
6:53 AM 32.0 °F 25.6 °F 23.0 °F 69% 29.75 in 10.0 mi West 6.9 mph 17.3 mph N/A   Overcast
7:33 AM 32.0 °F 26.4 °F 24.8 °F 75% 29.75 in 6.0 mi Variable 5.8 mph 17.3 mph 0.00 in Snow Light Snow
7:53 AM 32.0 °F 23.6 °F 25.0 °F 75% 29.79 in 9.0 mi West 10.4 mph 16.1 mph 0.00 in Snow Light Snow
8:11 AM 32.0 °F 23.6 °F 23.0 °F 69% 29.77 in 9.0 mi West 10.4 mph 19.6 mph 0.00 in Snow Light Snow
8:53 AM 32.0 °F 24.8 °F 24.1 °F 73% 29.83 in 9.0 mi WSW 8.1 mph - 0.00 in Snow Light Snow
9:53 AM 33.1 °F 25.5 °F 23.0 °F 66% 29.86 in 9.0 mi WSW 9.2 mph - 0.00 in   Mostly Cloudy
10:53 AM 34.0 °F 26.0 °F 19.0 °F 54% 29.88 in 10.0 mi West 10.4 mph 17.3 mph N/A   Mostly Cloudy
11:53 AM 37.0 °F 29.3 °F 21.0 °F 52% 29.86 in 10.0 mi WSW 11.5 mph 21.9 mph N/A   Mostly Cloudy
12:53 PM 39.0 °F 29.9 °F 19.0 °F 45% 29.86 in 10.0 mi WSW 17.3 mph 28.8 mph N/A   Mostly Cloudy
1:53 PM 37.9 °F 30.5 °F 18.0 °F 45% 29.86 in 10.0 mi West 11.5 mph 24.2 mph N/A   Mostly Cloudy
2:53 PM 39.9 °F 32.9 °F 19.0 °F 43% 29.87 in 10.0 mi West 11.5 mph 19.6 mph N/A   Scattered Clouds
3:53 PM 39.9 °F 34.5 °F 18.0 °F 41% 29.90 in 10.0 mi WSW 8.1 mph 17.3 mph N/A   Partly Cloudy
4:53 PM 39.0 °F 31.8 °F 18.0 °F 43% 29.92 in 10.0 mi WSW 11.5 mph - N/A   Partly Cloudy
5:53 PM 37.0 °F 32.4 °F 18.0 °F 46% 29.94 in 10.0 mi WSW 5.8 mph - N/A   Scattered Clouds
6:53 PM 37.0 °F 31.0 °F 19.0 °F 48% 29.98 in 10.0 mi WSW 8.1 mph - N/A   Partly Cloudy
7:53 PM 36.0 °F 30.3 °F 19.0 °F 50% 29.99 in 10.0 mi SW 6.9 mph - N/A   Clear
8:53 PM 35.1 °F 31.0 °F 19.9 °F 54% 30.01 in 10.0 mi SW 4.6 mph - N/A   Clear
9:53 PM 30.0 °F 26.5 °F 19.9 °F 66% 30.02 in 10.0 mi SSW 3.5 mph - N/A   Clear
10:53 PM 30.9 °F 27.5 °F 19.9 °F 64% 30.01 in 10.0 mi South 3.5 mph - N/A   Clear
11:53 PM 30.9 °F 26.2 °F 18.0 °F 59% 30.03 in 10.0 mi SSW 4.6 mph - N/A   Clear